Time,TemperatureF,DewpointF,PressureIn,WindDirection,WindDirectionDegrees,WindSpeedMPH,WindSpeedGustMPH,Humidity,HourlyPrecipIn,Conditions,Clouds,dailyrainin,SoftwareType,DateUTC
2013-08-08 00:04:00,53.7,53.0,30.16,West,277,0.0,0.0,96,0.00,,,0.00,weatherlink.com 1.10,2013-08-08 07:04:00,
2013-08-08 00:19:00,53.4,52.0,30.16,West,277,0.0,0.0,96,0.00,,,0.00,weatherlink.com 1.10,2013-08-08 07:19:00,
2013-08-08 00:34:00,53.5,52.0,30.16,West,277,0.0,0.0,96,0.00,,,0.00,weatherlink.com 1.10,2013-08-08 07:34:00,
2013-08-08 00:49:00,53.9,53.0,30.16,West,277,0.0,0.0,96,0.00,,,0.00,weatherlink.com 1.10,2013-08-08 07:49:00,
2013-08-08 01:04:00,54.2,53.0,30.16,West,277,0.0,0.0,96,0.00,,,0.00,weatherlink.com 1.10,2013-08-08 08:04:00,
2013-08-08 01:19:00,54.4,53.0,30.16,West,277,0.0,0.0,96,0.00,,,0.00,weatherlink.com 1.10,2013-08-08 08:19:00,
2013-08-08 01:34:00,54.5,53.0,30.16,West,277,0.0,0.0,96,0.00,,,0.00,weatherlink.com 1.10,2013-08-08 08:34:00,
2013-08-08 01:49:00,54.6,54.0,30.16,West,277,0.0,0.0,96,0.00,,,0.00,weatherlink.com 1.10,2013-08-08 08:49:00,
2013-08-08 02:04:00,54.6,54.0,30.16,West,277,0.0,0.0,96,0.00,,,0.00,weatherlink.com 1.10,2013-08-08 09:04:00,
2013-08-08 02:19:00,54.7,54.0,30.16,West,277,0.0,0.0,96,0.00,,,0.00,weatherlink.com 1.10,2013-08-08 09:19:00,
2013-08-08 02:34:00,54.7,54.0,30.16,West,277,0.0,0.0,96,0.00,,,0.00,weatherlink.com 1.10,2013-08-08 09:34:00,
2013-08-08 02:49:00,54.9,54.0,30.16,West,277,0.0,0.0,96,0.00,,,0.00,weatherlink.com 1.10,2013-08-08 09:49:00,
2013-08-08 03:04:00,54.9,54.0,30.15,West,277,0.0,0.0,96,0.00,,,0.00,weatherlink.com 1.10,2013-08-08 10:04:00,
2013-08-08 03:19:00,53.8,53.0,30.15,West,277,0.0,1.0,96,0.00,,,0.00,weatherlink.com 1.10,2013-08-08 10:19:00,
2013-08-08 03:34:00,53.8,53.0,30.15,West,277,0.0,0.0,96,0.00,,,0.00,weatherlink.com 1.10,2013-08-08 10:34:00,
2013-08-08 03:49:00,53.6,53.0,30.16,West,277,0.0,0.0,96,0.00,,,0.00,weatherlink.com 1.10,2013-08-08 10:49:00,
2013-08-08 04:04:00,53.7,53.0,30.15,West,277,0.0,0.0,96,0.00,,,0.00,weatherlink.com 1.10,2013-08-08 11:04:00,
2013-08-08 04:19:00,53.9,53.0,30.15,West,277,0.0,0.0,96,0.00,,,0.00,weatherlink.com 1.10,2013-08-08 11:19:00,
2013-08-08 04:34:00,54.1,53.0,30.15,West,277,0.0,0.0,96,0.00,,,0.00,weatherlink.com 1.10,2013-08-08 11:34:00,
2013-08-08 04:49:00,54.3,53.0,30.15,West,277,0.0,0.0,96,0.00,,,0.00,weatherlink.com 1.10,2013-08-08 11:49:00,
2013-08-08 05:04:00,54.4,53.0,30.15,West,277,0.0,0.0,96,0.00,,,0.00,weatherlink.com 1.10,2013-08-08 12:04:00,
2013-08-08 05:19:00,54.6,54.0,30.15,West,277,0.0,0.0,96,0.00,,,0.00,weatherlink.com 1.10,2013-08-08 12:19:00,
2013-08-08 05:34:00,54.7,54.0,30.15,West,277,0.0,0.0,96,0.00,,,0.00,weatherlink.com 1.10,2013-08-08 12:34:00,
2013-08-08 05:49:00,54.9,54.0,30.15,West,277,0.0,0.0,97,0.00,,,0.00,weatherlink.com 1.10,2013-08-08 12:49:00,
2013-08-08 06:04:00,55.1,54.0,30.15,West,277,0.0,0.0,97,0.01,,,0.01,weatherlink.com 1.10,2013-08-08 13:04:00,
2013-08-08 06:19:00,55.4,54.0,30.15,West,277,0.0,0.0,96,0.01,,,0.01,weatherlink.com 1.10,2013-08-08 13:19:00,
2013-08-08 06:34:00,55.7,55.0,30.15,West,277,0.0,0.0,97,0.01,,,0.01,weatherlink.com 1.10,2013-08-08 13:34:00,
2013-08-08 06:49:00,55.8,55.0,30.15,West,277,0.0,0.0,97,0.01,,,0.01,weatherlink.com 1.10,2013-08-08 13:49:00,
2013-08-08 07:04:00,55.9,55.0,30.15,West,277,0.0,0.0,97,0.00,,,0.01,weatherlink.com 1.10,2013-08-08 14:04:00,
2013-08-08 07:19:00,56.1,55.0,30.15,West,277,0.0,0.0,97,0.00,,,0.01,weatherlink.com 1.10,2013-08-08 14:19:00,
2013-08-08 07:34:00,56.2,55.0,30.14,West,277,0.0,0.0,97,0.00,,,0.01,weatherlink.com 1.10,2013-08-08 14:34:00,
2013-08-08 07:49:00,56.5,56.0,30.15,West,277,0.0,0.0,97,0.00,,,0.01,weatherlink.com 1.10,2013-08-08 14:49:00,
2013-08-08 08:04:00,56.7,56.0,30.15,West,277,0.0,0.0,97,0.00,,,0.01,weatherlink.com 1.10,2013-08-08 15:04:00,
2013-08-08 08:19:00,56.8,56.0,30.15,West,277,0.0,0.0,97,0.00,,,0.01,weatherlink.com 1.10,2013-08-08 15:19:00,
2013-08-08 08:34:00,57.1,56.0,30.14,West,277,0.0,1.0,97,0.00,,,0.01,weatherlink.com 1.10,2013-08-08 15:34:00,
2013-08-08 08:49:00,56.7,56.0,30.14,West,271,0.0,3.0,97,0.00,,,0.01,weatherlink.com 1.10,2013-08-08 15:49:00,
2013-08-08 09:04:00,56.7,56.0,30.14,West,271,0.0,1.0,97,0.00,,,0.01,weatherlink.com 1.10,2013-08-08 16:04:00,
2013-08-08 09:19:00,57.0,56.0,30.15,West,271,0.0,0.0,97,0.00,,,0.01,weatherlink.com 1.10,2013-08-08 16:19:00,
2013-08-08 09:34:00,57.1,56.0,30.14,West,271,1.0,3.0,97,0.00,,,0.01,weatherlink.com 1.10,2013-08-08 16:34:00,
2013-08-08 09:49:00,57.3,57.0,30.15,West,271,1.0,3.0,97,0.00,,,0.01,weatherlink.com 1.10,2013-08-08 16:49:00,
2013-08-08 10:04:00,56.7,56.0,30.15,West,265,1.0,4.0,97,0.00,,,0.01,weatherlink.com 1.10,2013-08-08 17:04:00,
2013-08-08 10:19:00,57.4,57.0,30.15,West,269,1.0,2.0,97,0.00,,,0.01,weatherlink.com 1.10,2013-08-08 17:19:00,
2013-08-08 10:34:00,57.5,57.0,30.15,West,269,0.0,2.0,97,0.00,,,0.01,weatherlink.com 1.10,2013-08-08 17:34:00,
2013-08-08 10:49:00,58.3,58.0,30.14,West,272,1.0,2.0,97,0.00,,,0.01,weatherlink.com 1.10,2013-08-08 17:49:00,
2013-08-08 11:04:00,58.3,58.0,30.14,West,266,1.0,4.0,97,0.00,,,0.01,weatherlink.com 1.10,2013-08-08 18:04:00,
2013-08-08 11:19:00,59.4,59.0,30.14,WNW,296,1.0,4.0,97,0.00,,,0.01,weatherlink.com 1.10,2013-08-08 18:19:00,
2013-08-08 11:34:00,60.0,59.0,30.14,WNW,288,1.0,5.0,97,0.00,,,0.01,weatherlink.com 1.10,2013-08-08 18:34:00,
2013-08-08 11:49:00,61.1,60.0,30.14,NW,315,0.0,6.0,97,0.00,,,0.01,weatherlink.com 1.10,2013-08-08 18:49:00,
2013-08-08 12:04:00,61.5,60.0,30.14,West,276,3.0,6.0,96,0.00,,,0.01,weatherlink.com 1.10,2013-08-08 19:04:00,
2013-08-08 12:19:00,62.3,61.0,30.14,West,279,4.0,8.0,95,0.00,,,0.01,weatherlink.com 1.10,2013-08-08 19:19:00,
2013-08-08 12:34:00,61.0,59.0,30.14,West,260,3.0,7.0,94,0.00,,,0.01,weatherlink.com 1.10,2013-08-08 19:34:00,
2013-08-08 12:49:00,61.6,60.0,30.13,NNW,344,0.0,9.0,95,0.00,,,0.01,weatherlink.com 1.10,2013-08-08 19:49:00,
2013-08-08 13:04:00,62.0,60.0,30.13,NW,304,4.0,9.0,94,0.00,,,0.01,weatherlink.com 1.10,2013-08-08 20:04:00,
2013-08-08 13:19:00,60.9,59.0,30.13,North,355,0.0,6.0,93,0.00,,,0.01,weatherlink.com 1.10,2013-08-08 20:19:00,
2013-08-08 13:34:00,60.4,58.0,30.13,WSW,255,5.0,6.0,93,0.00,,,0.01,weatherlink.com 1.10,2013-08-08 20:34:00,
2013-08-08 13:49:00,59.8,58.0,30.13,WNW,286,3.0,8.0,93,0.00,,,0.01,weatherlink.com 1.10,2013-08-08 20:49:00,
2013-08-08 14:04:00,59.4,58.0,30.13,West,269,3.0,6.0,94,0.00,,,0.01,weatherlink.com 1.10,2013-08-08 21:04:00,
2013-08-08 14:19:00,59.4,58.0,30.13,NW,317,1.0,8.0,94,0.00,,,0.01,weatherlink.com 1.10,2013-08-08 21:19:00,
2013-08-08 14:34:00,59.7,58.0,30.13,WNW,289,1.0,8.0,95,0.00,,,0.01,weatherlink.com 1.10,2013-08-08 21:34:00,
2013-08-08 14:49:00,59.8,58.0,30.13,NNE,18,2.0,7.0,94,0.00,,,0.01,weatherlink.com 1.10,2013-08-08 21:49:00,
2013-08-08 15:04:00,60.0,58.0,30.13,West,275,4.0,8.0,94,0.00,,,0.01,weatherlink.com 1.10,2013-08-08 22:04:00,
2013-08-08 15:19:00,60.4,58.0,30.13,NW,314,2.0,8.0,93,0.00,,,0.01,weatherlink.com 1.10,2013-08-08 22:19:00,
2013-08-08 15:35:00,59.9,58.0,30.12,NW,306,6.0,9.0,93,0.00,,,0.01,weatherlink.com 1.10,2013-08-08 22:35:00,
2013-08-08 15:50:00,59.2,57.0,30.12,WNW,291,5.0,8.0,92,0.00,,,0.01,weatherlink.com 1.10,2013-08-08 22:50:00,
2013-08-08 16:05:00,59.4,57.0,30.12,NNW,346,1.0,7.0,92,0.00,,,0.01,weatherlink.com 1.10,2013-08-08 23:05:00,
2013-08-08 16:20:00,58.8,57.0,30.12,West,281,3.0,5.0,92,0.00,,,0.01,weatherlink.com 1.10,2013-08-08 23:20:00,
2013-08-08 16:50:00,58.4,56.0,30.11,NW,309,2.0,8.0,93,0.00,,,0.01,weatherlink.com 1.10,2013-08-08 23:50:00,
2013-08-08 17:05:00,58.6,56.0,30.10,West,263,2.0,10.0,92,0.00,,,0.01,weatherlink.com 1.10,2013-08-09 00:05:00,
2013-08-08 17:35:00,58.2,56.0,30.10,NW,309,5.0,8.0,92,0.00,,,0.01,weatherlink.com 1.10,2013-08-09 00:35:00,
2013-08-08 17:50:00,57.2,55.0,30.10,NW,315,4.0,10.0,92,0.00,,,0.01,weatherlink.com 1.10,2013-08-09 00:50:00,
2013-08-08 18:05:00,56.4,55.0,30.09,WNW,289,3.0,6.0,93,0.00,,,0.01,weatherlink.com 1.10,2013-08-09 01:05:00,
2013-08-08 18:20:00,56.2,55.0,30.09,WNW,301,0.0,5.0,94,0.00,,,0.01,weatherlink.com 1.10,2013-08-09 01:20:00,
2013-08-08 18:35:00,56.2,55.0,30.09,West,273,3.0,7.0,94,0.00,,,0.01,weatherlink.com 1.10,2013-08-09 01:35:00,
2013-08-08 18:50:00,56.0,54.0,30.08,WNW,298,0.0,5.0,94,0.00,,,0.01,weatherlink.com 1.10,2013-08-09 01:50:00,
2013-08-08 19:05:00,55.9,54.0,30.08,NW,316,1.0,3.0,94,0.00,,,0.01,weatherlink.com 1.10,2013-08-09 02:05:00,
2013-08-08 19:35:00,56.6,55.0,30.07,West,267,0.0,2.0,95,0.00,,,0.01,weatherlink.com 1.10,2013-08-09 02:35:00,
2013-08-08 20:05:00,56.9,55.0,30.07,West,281,0.0,1.0,94,0.00,,,0.01,weatherlink.com 1.10,2013-08-09 03:05:00,
2013-08-08 20:20:00,56.8,55.0,30.07,West,281,0.0,0.0,94,0.00,,,0.01,weatherlink.com 1.10,2013-08-09 03:20:00,
2013-08-08 20:50:00,55.8,54.0,30.06,WSW,244,0.0,0.0,94,0.00,,,0.01,weatherlink.com 1.10,2013-08-09 03:50:00,
2013-08-08 21:05:00,55.3,54.0,30.07,WSW,244,0.0,1.0,94,0.00,,,0.01,weatherlink.com 1.10,2013-08-09 04:05:00,
2013-08-08 21:20:00,55.1,54.0,30.07,WSW,244,0.0,0.0,94,0.00,,,0.01,weatherlink.com 1.10,2013-08-09 04:20:00,
2013-08-08 21:35:00,54.9,53.0,30.07,WSW,244,0.0,0.0,94,0.00,,,0.01,weatherlink.com 1.10,2013-08-09 04:35:00,
2013-08-08 21:50:00,54.7,53.0,30.07,WSW,244,0.0,0.0,94,0.00,,,0.01,weatherlink.com 1.10,2013-08-09 04:50:00,
2013-08-08 22:05:00,54.5,53.0,30.07,WSW,244,0.0,2.0,95,0.00,,,0.01,weatherlink.com 1.10,2013-08-09 05:05:00,
2013-08-08 22:20:00,54.2,53.0,30.08,WSW,244,0.0,0.0,94,0.00,,,0.01,weatherlink.com 1.10,2013-08-09 05:20:00,
2013-08-08 22:35:00,54.0,53.0,30.08,WSW,244,0.0,0.0,95,0.00,,,0.01,weatherlink.com 1.10,2013-08-09 05:35:00,
2013-08-08 22:50:00,53.9,53.0,30.08,WSW,244,0.0,2.0,95,0.00,,,0.01,weatherlink.com 1.10,2013-08-09 05:50:00,
2013-08-08 23:05:00,53.9,53.0,30.08,WSW,244,0.0,1.0,95,0.00,,,0.01,weatherlink.com 1.10,2013-08-09 06:05:00,
2013-08-08 23:20:00,54.0,53.0,30.08,WSW,244,0.0,0.0,95,0.00,,,0.01,weatherlink.com 1.10,2013-08-09 06:20:00,
2013-08-08 23:35:00,54.3,53.0,30.08,WSW,244,0.0,0.0,95,0.00,,,0.01,weatherlink.com 1.10,2013-08-09 06:35:00,
2013-08-08 23:50:00,54.6,53.0,30.08,SW,223,0.0,0.0,95,0.00,,,0.01,weatherlink.com 1.10,2013-08-09 06:50:00,